User: anonymous   Login
Location: Unspecified
(0.0000°N, 0.0000°E)
Time: 19:24:19
(UTC+00:00)
Language:

Meteor 1-27 - Orbit

View from above orbital plane
View from above orbital plane
View from above satellite
View from above satellite

Ground track
Ground track

The orbit data is extracted from the following two-line orbital elements,

1 09903U 77024A   18169.18614344 -.00000081  00000-0 -54012-4 0  9994
2 09903  81.2598  87.3272 0038239 336.2617  23.6787 14.08272871116593
Epoch (UTC): 18 June 2018 04:28:02
Eccentricity: 0.0038239
inclination: 81.2598°
perigee height: 837 km
apogee height: 893 km
right ascension of ascending node: 87.3272°
argument of perigee: 336.2617°
revolutions per day: 14.08272871
mean anomaly at epoch: 23.6787°
orbit number at epoch: 11659

The dashed part of the orbit path shows where the satellite is in the earth's shadow,  

DLR